Location: Blienschwiller
(48.3416°N, 7.4182°E)
Time: 21:54:10
(UTC+00:00)

Cosmos 1151 Rocket - Pass Details

Date: 18 February 2020
Orbit: 592 x 616 km, 82.5° (Epoch: 29 March)

Event Time Altitude Azimuth Distance (km) Brightness Sun altitude
Rises 05:39:59 0° 177° (S) 2,837 6.6 -9.5°
Reaches altitude 10° 05:42:12 10° 173° (S) 1,943 5.8 -9.1°
Maximum altitude 05:46:25 58° 95° (E) 713 3.8 -8.4°
Drops below altitude 10° 05:50:42 10° 17° (NNE) 1,974 5.8 -7.7°
Sets 05:52:57 0° 13° (NNE) 2,887 6.6 -7.4°
